Regional Weather Roundup
Issued by NWS Midland/Odessa, TX

Home | Current Version | Previous Version | Text Only | Print | Product List | Glossary On
Versions: 1 2 3 4 5 6 7 8 9 10 11 12 13 14 15 16 17 18 19 20 21 22 23 24 25 26 27 28 29 30 31 32 33 34 35 36 37 38 39 40 41 42 43 44 45 46 47 48 49 50
000
ASUS44 KMAF 241610
RWRMAF
MIDLAND AREA WEATHER ROUNDUP
NATIONAL WEATHER SERVICE MIDLAND TX
1100 AM CDT FRI MAR 24 2017

...IN SOUTHWEST TEXAS AND SOUTHEAST NEW MEXICO...

CITY           SKY/WX    TMP DP  RH WIND       PRES   REMARKS
ALPINE         SUNNY     57  19  22 W26G38    30.13R
ANDREWS        FAIR      61  27  27 W22G32    29.90S
ARTESIA        MOSUNNY   63  27  25 NW28G38   29.89R
BIG SPRING     SUNNY     62  27  26 SW32G40   29.92F
CARLSBAD       SUNNY     62  27  26 W33G44    29.89R
DRYDEN           N/A     71  17  12 W24G41    29.97S
FORT STOCKTON  SUNNY     64  23  21 W28G41    29.99S
GUAD PASS        N/A    N/A N/A N/A MISG        N/A
HOBBS          SUNNY     59  25  27 SW24G37   29.90R
MARFA          SUNNY     56  19  23 W33G45    30.12R
MIDLAND AIRPK  SUNNY     63  28  26 W24G32    29.92F
MIDLAND INTL   SUNNY     63  26  24 W30G43    29.91F
ODESSA           N/A     63  25  23 W29G43    29.92F
PECOS          SUNNY     65  25  22 W37G45    29.93F
PRESIDIO       FAIR      65  19  16 W20G25    30.14R
SEMINOLE       SUNNY     60  28  29 W28G39    29.88F
SNYDER         SUNNY     63  29  27 SW31G44   29.86S
WINK           PTSUNNY   63  25  23 W31G41    29.93R
$$
...OTHER STATIONS IN TEXAS...

CITY           SKY/WX    TMP DP  RH WIND       PRES   REMARKS
ABILENE        SUNNY     67  28  23 W24G31    29.88R
AMARILLO       CLOUDY    51  35  54 W29G41    29.60S
AUSTIN         CLOUDY    69  67  93 S7        29.96S
BROWNSVILLE    CLOUDY    81  69  67 S30G40    29.96R
CORPUS CHRISTI PTSUNNY   78  69  73 S29G36    29.95S
DALLAS FTW     LGT RAIN  59  54  83 S12       29.88F
DEL RIO        SUNNY     75  30  19 N10       29.98R
EL PASO        MOSUNNY   56  25  30 W26G35    30.08R
HOUSTON INT    CLOUDY    76  63  64 S23G30    30.03F
LUBBOCK        MOSUNNY   63  29  27 W35G45    29.76R
SAN ANGELO     SUNNY     70  25  18 W26G33    29.94S
SAN ANTONIO    CLOUDY    70  64  81 S8G16     29.97S
WACO           CLOUDY    58  56  93 N8        29.94R
WICHITA FALLS  NOT AVBL
$$
...OTHER LOCATIONS IN NEW MEXICO...

CITY           SKY/WX    TMP DP  RH WIND       PRES   REMARKS
ALAMAGORDO     CLOUDY    55  23  28 NW10G18   30.08R
ALBUQUERQUE    PTSUNNY   51  27  39 N20G37    30.04R
CANNON AFB     LGT RAIN  53  35  50 W30       29.77R
CLOVIS         CLOUDY    54  34  47 NW29G39   29.77R
HOLLOMAN AFB   MOSUNNY   57  24  27 W18       30.09R
ROSWELL        MOSUNNY   65  25  22 NW25G32   29.88R
RUIDOSO        CLOUDY    45  23  42 NW28G52   29.97R WCI  35
SANTA FE       CLOUDY    45  35  68 NW9       29.97R
TRUTH OR CONSE MOSUNNY   54  23  30 NW23G35   30.04F
TUCUMCARI      CLOUDY    55  33  43 NW31G46   29.75R
$$



USA.gov is the U.S. government's official web portal to all federal, state and local government web resources and services.